Time,TemperatureF,DewpointF,PressureIn,WindDirection,WindDirectionDegrees,WindSpeedMPH,WindSpeedGustMPH,Humidity,HourlyPrecipIn,Conditions,Clouds,dailyrainin,SoftwareType,DateUTC
2013-01-24 00:00:00,17.6,-14.0,28.14,NW,308,7.0,13.0,23,0.00,CLR,,0.00,WeatherDisplay:10.37,2013-01-24 05:00:00,
2013-01-24 00:05:00,17.4,-14.1,28.14,NW,308,7.0,13.0,23,0.00,CLR,,0.00,WeatherDisplay:10.37,2013-01-24 05:05:00,
2013-01-24 00:10:00,17.6,-14.0,28.14,NW,311,8.0,12.0,23,0.00,CLR,,0.00,WeatherDisplay:10.37,2013-01-24 05:10:00,
2013-01-24 00:15:00,17.1,-14.5,28.14,NW,313,7.0,10.0,23,0.00,CLR,,0.00,WeatherDisplay:10.37,2013-01-24 05:15:00,
2013-01-24 00:25:00,17.2,-14.3,28.17,NW,321,8.0,10.0,23,0.00,CLR,,0.00,WeatherDisplay:10.37,2013-01-24 05:25:00,
2013-01-24 00:30:00,17.1,-12.0,28.17,NW,318,9.0,13.0,26,0.00,CLR,,0.00,WeatherDisplay:10.37,2013-01-24 05:30:00,
2013-01-24 00:35:00,16.9,-12.2,28.17,NW,321,8.0,11.0,26,0.00,CLR,,0.00,WeatherDisplay:10.37,2013-01-24 05:35:00,
2013-01-24 00:45:00,16.9,-12.2,28.17,NW,319,8.0,11.0,26,0.00,CLR,,0.00,WeatherDisplay:10.37,2013-01-24 05:45:00,
2013-01-24 00:50:00,16.5,-12.5,28.17,NW,322,6.0,9.0,26,0.00,CLR,,0.00,WeatherDisplay:10.37,2013-01-24 05:50:00,
2013-01-24 00:55:00,16.9,-12.2,28.17,NNW,327,9.0,12.0,26,0.00,CLR,,0.00,WeatherDisplay:10.37,2013-01-24 05:55:00,
2013-01-24 01:00:00,16.9,-12.2,28.17,NW,323,9.0,12.0,26,0.00,CLR,,0.00,WeatherDisplay:10.37,2013-01-24 06:00:00,
2013-01-24 01:05:00,17.1,-12.0,28.17,NW,322,8.0,12.0,26,0.00,CLR,,0.00,WeatherDisplay:10.37,2013-01-24 06:05:00,
2013-01-24 01:10:00,17.4,-10.9,28.17,NW,321,8.0,12.0,27,0.00,CLR,,0.00,WeatherDisplay:10.37,2013-01-24 06:10:00,
2013-01-24 01:15:00,17.6,-8.0,28.17,NW,324,8.0,13.0,31,0.00,CLR,,0.00,WeatherDisplay:10.37,2013-01-24 06:15:00,
2013-01-24 01:20:00,16.9,-8.5,28.17,NNW,327,8.0,9.0,31,0.00,CLR,,0.00,WeatherDisplay:10.37,2013-01-24 06:20:00,
2013-01-24 01:25:00,16.8,-8.7,28.20,NNW,333,8.0,9.0,31,0.00,CLR,,0.00,WeatherDisplay:10.37,2013-01-24 06:25:00,
2013-01-24 01:35:00,17.4,-8.1,28.20,NNW,335,9.0,11.0,31,0.00,CLR,,0.00,WeatherDisplay:10.37,2013-01-24 06:35:00,
2013-01-24 01:40:00,17.8,-8.5,28.20,NNW,331,7.0,9.0,30,0.00,CLR,,0.00,WeatherDisplay:10.37,2013-01-24 06:40:00,
2013-01-24 01:45:00,17.8,-6.5,28.20,NNW,329,9.0,13.0,33,0.00,CLR,,0.00,WeatherDisplay:10.37,2013-01-24 06:45:00,
2013-01-24 01:50:00,17.8,-5.9,28.20,NNW,334,13.0,15.0,34,0.00,CLR,,0.00,WeatherDisplay:10.37,2013-01-24 06:50:00,
2013-01-24 01:55:00,17.5,-4.9,28.23,NNW,341,5.0,11.0,36,0.00,CLR,,0.00,WeatherDisplay:10.37,2013-01-24 06:55:00,
2013-01-24 02:00:00,16.9,-6.1,28.23,North,8,2.0,7.0,35,0.00,CLR,,0.00,WeatherDisplay:10.37,2013-01-24 07:00:00,
2013-01-24 02:05:00,16.5,-7.0,28.23,NNE,13,2.0,6.0,34,0.00,CLR,,0.00,WeatherDisplay:10.37,2013-01-24 07:05:00,
2013-01-24 02:10:00,16.2,-9.2,28.23,NNE,22,0.0,4.0,31,0.00,CLR,,0.00,WeatherDisplay:10.37,2013-01-24 07:10:00,
2013-01-24 02:15:00,16.0,-9.3,28.23,North,6,2.0,6.0,31,0.00,CLR,,0.00,WeatherDisplay:10.37,2013-01-24 07:15:00,
2013-01-24 02:20:00,15.6,-11.1,28.23,North,6,2.0,6.0,29,0.00,CLR,,0.00,WeatherDisplay:10.37,2013-01-24 07:20:00,
2013-01-24 02:25:00,15.1,-11.5,28.26,NNE,33,0.0,6.0,29,0.00,CLR,,0.00,WeatherDisplay:10.37,2013-01-24 07:25:00,
2013-01-24 02:30:00,14.6,-12.0,28.26,North,349,2.0,6.0,29,0.00,CLR,,0.00,WeatherDisplay:10.37,2013-01-24 07:30:00,
2013-01-24 02:35:00,14.0,-12.5,28.26,NNW,345,2.0,5.0,29,0.00,CLR,,0.00,WeatherDisplay:10.37,2013-01-24 07:35:00,
2013-01-24 02:40:00,13.8,-12.6,28.29,North,350,5.0,7.0,29,0.00,CLR,,0.00,WeatherDisplay:10.37,2013-01-24 07:40:00,
2013-01-24 02:45:00,13.8,-12.6,28.29,North,350,5.0,6.0,29,0.00,CLR,,0.00,WeatherDisplay:10.37,2013-01-24 07:45:00,
2013-01-24 02:50:00,13.8,-12.6,28.29,North,351,5.0,6.0,29,0.00,CLR,,0.00,WeatherDisplay:10.37,2013-01-24 07:50:00,
2013-01-24 02:55:00,13.6,-12.8,28.29,North,350,3.0,6.0,29,0.00,CLR,,0.00,WeatherDisplay:10.37,2013-01-24 07:55:00,
2013-01-24 03:00:00,13.5,-13.0,28.29,North,351,3.0,6.0,29,0.00,CLR,,0.00,WeatherDisplay:10.37,2013-01-24 08:00:00,
2013-01-24 03:05:00,13.4,-13.0,28.29,North,350,5.0,6.0,29,0.00,CLR,,0.00,WeatherDisplay:10.37,2013-01-24 08:05:00,
2013-01-24 03:10:00,13.2,-13.2,28.29,North,349,5.0,6.0,29,0.00,CLR,,0.00,WeatherDisplay:10.37,2013-01-24 08:10:00,
2013-01-24 03:15:00,13.1,-13.2,28.29,North,352,5.0,6.0,29,0.00,CLR,,0.00,WeatherDisplay:10.37,2013-01-24 08:15:00,
2013-01-24 03:20:00,13.2,-13.2,28.29,North,350,6.0,8.0,29,0.00,CLR,,0.00,WeatherDisplay:10.37,2013-01-24 08:20:00,
2013-01-24 03:25:00,13.1,-13.3,28.32,NNW,348,5.0,8.0,29,0.00,CLR,,0.00,WeatherDisplay:10.37,2013-01-24 08:25:00,
2013-01-24 03:30:00,12.9,-13.5,28.32,NNW,348,3.0,6.0,29,0.00,CLR,,0.00,WeatherDisplay:10.37,2013-01-24 08:30:00,
2013-01-24 03:40:00,12.6,-13.7,28.32,North,349,6.0,6.0,29,0.00,CLR,,0.00,WeatherDisplay:10.37,2013-01-24 08:40:00,
2013-01-24 03:45:00,12.4,-13.9,28.32,North,349,5.0,6.0,29,0.00,CLR,,0.00,WeatherDisplay:10.37,2013-01-24 08:45:00,
2013-01-24 03:50:00,12.2,-14.1,28.32,North,352,5.0,6.0,29,0.00,CLR,,0.00,WeatherDisplay:10.37,2013-01-24 08:50:00,
2013-01-24 03:55:00,12.0,-14.2,28.32,North,351,5.0,6.0,29,0.00,CLR,,0.00,WeatherDisplay:10.37,2013-01-24 08:55:00,
2013-01-24 04:00:00,11.8,-14.4,28.32,North,350,3.0,6.0,29,0.00,CLR,,0.00,WeatherDisplay:10.37,2013-01-24 09:00:00,
2013-01-24 04:05:00,11.8,-14.4,28.32,NNW,348,3.0,6.0,29,0.00,CLR,,0.00,WeatherDisplay:10.37,2013-01-24 09:05:00,
2013-01-24 04:10:00,11.7,-14.5,28.32,NNW,346,5.0,6.0,29,0.00,CLR,,0.00,WeatherDisplay:10.37,2013-01-24 09:10:00,
2013-01-24 04:15:00,11.7,-14.5,28.32,NNW,344,5.0,6.0,29,0.00,CLR,,0.00,WeatherDisplay:10.37,2013-01-24 09:15:00,
2013-01-24 04:20:00,11.9,-14.3,28.32,NNW,344,5.0,8.0,29,0.00,CLR,,0.00,WeatherDisplay:10.37,2013-01-24 09:20:00,
2013-01-24 04:25:00,11.7,-14.5,28.35,NNW,343,5.0,6.0,29,0.00,CLR,,0.00,WeatherDisplay:10.37,2013-01-24 09:25:00,
2013-01-24 04:30:00,11.3,-14.9,28.35,NNW,342,5.0,7.0,29,0.00,CLR,,0.00,WeatherDisplay:10.37,2013-01-24 09:30:00,
2013-01-24 04:35:00,11.1,-15.0,28.35,NNW,340,3.0,4.0,29,0.00,CLR,,0.00,WeatherDisplay:10.37,2013-01-24 09:35:00,
2013-01-24 04:45:00,10.2,-15.8,28.35,NNW,332,3.0,4.0,29,0.00,CLR,,0.00,WeatherDisplay:10.37,2013-01-24 09:45:00,
2013-01-24 04:50:00,10.0,-16.0,28.35,NNW,333,3.0,5.0,29,0.00,CLR,,0.00,WeatherDisplay:10.37,2013-01-24 09:50:00,
2013-01-24 05:00:00,8.7,-17.1,28.35,NNW,329,2.0,3.0,29,0.00,CLR,,0.00,WeatherDisplay:10.37,2013-01-24 10:00:00,
2013-01-24 05:05:00,8.1,-17.7,28.35,NNW,329,2.0,3.0,29,0.00,CLR,,0.00,WeatherDisplay:10.37,2013-01-24 10:05:00,
2013-01-24 05:10:00,7.9,-17.9,28.35,NNW,329,2.0,3.0,29,0.00,CLR,,0.00,WeatherDisplay:10.37,2013-01-24 10:10:00,
2013-01-24 05:15:00,7.7,-18.0,28.35,NNW,329,2.0,3.0,29,0.00,CLR,,0.00,WeatherDisplay:10.37,2013-01-24 10:15:00,
2013-01-24 05:20:00,7.7,-18.0,28.35,NNW,329,0.0,3.0,29,0.00,CLR,,0.00,WeatherDisplay:10.37,2013-01-24 10:20:00,
2013-01-24 05:25:00,7.5,-18.2,28.38,NNW,329,2.0,3.0,29,0.00,CLR,,0.00,WeatherDisplay:10.37,2013-01-24 10:25:00,
2013-01-24 05:30:00,7.5,-18.2,28.38,NNW,329,2.0,3.0,29,0.00,CLR,,0.00,WeatherDisplay:10.37,2013-01-24 10:30:00,
2013-01-24 05:35:00,7.2,-18.5,28.38,NNW,329,2.0,3.0,29,0.00,CLR,,0.00,WeatherDisplay:10.37,2013-01-24 10:35:00,
2013-01-24 05:40:00,7.2,-18.5,28.38,NNW,329,2.0,3.0,29,0.00,CLR,,0.00,WeatherDisplay:10.37,2013-01-24 10:40:00,
2013-01-24 05:45:00,7.6,-18.1,28.38,NNW,329,2.0,3.0,29,0.00,CLR,,0.00,WeatherDisplay:10.37,2013-01-24 10:45:00,
2013-01-24 05:50:00,7.9,-17.9,28.38,NNW,330,3.0,5.0,29,0.00,CLR,,0.00,WeatherDisplay:10.37,2013-01-24 10:50:00,
2013-01-24 05:55:00,8.5,-17.3,28.38,NNW,333,3.0,5.0,29,0.00,CLR,,0.00,WeatherDisplay:10.37,2013-01-24 10:55:00,
2013-01-24 06:00:00,9.3,-16.6,28.38,NNW,337,3.0,6.0,29,0.00,CLR,,0.00,WeatherDisplay:10.37,2013-01-24 11:00:00,
2013-01-24 06:10:00,9.3,-16.6,28.41,NNW,342,3.0,4.0,29,0.00,CLR,,0.00,WeatherDisplay:10.37,2013-01-24 11:10:00,
2013-01-24 06:15:00,9.1,-16.8,28.41,NNW,342,2.0,4.0,29,0.00,CLR,,0.00,WeatherDisplay:10.37,2013-01-24 11:15:00,
2013-01-24 06:20:00,8.6,-17.2,28.41,NNW,342,2.0,3.0,29,0.00,CLR,,0.00,WeatherDisplay:10.37,2013-01-24 11:20:00,
2013-01-24 06:25:00,8.4,-17.4,28.41,NNW,342,2.0,3.0,29,0.00,CLR,,0.00,WeatherDisplay:10.37,2013-01-24 11:25:00,
2013-01-24 06:30:00,8.4,-17.4,28.41,NNW,342,2.0,4.0,29,0.00,CLR,,0.00,WeatherDisplay:10.37,2013-01-24 11:30:00,
2013-01-24 06:35:00,8.1,-17.7,28.41,NNW,342,2.0,3.0,29,0.00,CLR,,0.00,WeatherDisplay:10.37,2013-01-24 11:35:00,
2013-01-24 06:40:00,7.6,-18.1,28.44,NNW,342,0.0,2.0,29,0.00,CLR,,0.00,WeatherDisplay:10.37,2013-01-24 11:40:00,
2013-01-24 06:45:00,7.2,-18.5,28.44,NNW,342,0.0,0.0,29,0.00,CLR,,0.00,WeatherDisplay:10.37,2013-01-24 11:45:00,
2013-01-24 06:50:00,6.8,-18.8,28.44,NNW,342,0.0,0.0,29,0.00,CLR,,0.00,WeatherDisplay:10.37,2013-01-24 11:50:00,
2013-01-24 07:00:00,6.9,-18.7,28.44,NNW,342,0.0,3.0,29,0.00,CLR,,0.00,WeatherDisplay:10.37,2013-01-24 12:00:00,
2013-01-24 07:05:00,7.0,-18.7,28.44,NNW,342,2.0,3.0,29,0.00,CLR,,0.00,WeatherDisplay:10.37,2013-01-24 12:05:00,
2013-01-24 07:10:00,7.0,-18.7,28.44,NNW,342,2.0,3.0,29,0.00,CLR,,0.00,WeatherDisplay:10.37,2013-01-24 12:10:00,
2013-01-24 07:15:00,7.0,-18.7,28.44,NNW,342,0.0,3.0,29,0.00,CLR,,0.00,WeatherDisplay:10.37,2013-01-24 12:15:00,
2013-01-24 07:20:00,7.2,-18.5,28.44,NNW,342,0.0,2.0,29,0.00,CLR,,0.00,WeatherDisplay:10.37,2013-01-24 12:20:00,
2013-01-24 07:25:00,7.0,-18.7,28.47,NNW,342,0.0,0.0,29,0.00,CLR,,0.00,WeatherDisplay:10.37,2013-01-24 12:25:00,
2013-01-24 07:30:00,6.8,-18.8,28.47,NNW,342,0.0,0.0,29,0.00,CLR,,0.00,WeatherDisplay:10.37,2013-01-24 12:30:00,
2013-01-24 07:35:00,6.5,-19.1,28.47,NNW,342,0.0,0.0,29,0.00,CLR,,0.00,WeatherDisplay:10.37,2013-01-24 12:35:00,
2013-01-24 07:40:00,6.6,-19.0,28.47,NNW,342,0.0,0.0,29,0.00,CLR,,0.00,WeatherDisplay:10.37,2013-01-24 12:40:00,
2013-01-24 07:45:00,6.8,-18.8,28.47,NNW,342,0.0,0.0,29,0.00,CLR,,0.00,WeatherDisplay:10.37,2013-01-24 12:45:00,
2013-01-24 07:50:00,6.4,-19.1,28.47,NNW,342,0.0,0.0,29,0.00,CLR,,0.00,WeatherDisplay:10.37,2013-01-24 12:50:00,
2013-01-24 07:55:00,6.9,-18.8,28.47,NNW,342,0.0,0.0,29,0.00,CLR,,0.00,WeatherDisplay:10.37,2013-01-24 12:55:00,
2013-01-24 08:00:00,7.0,-18.7,28.47,NNW,342,0.0,0.0,29,0.00,CLR,,0.00,WeatherDisplay:10.37,2013-01-24 13:00:00,
2013-01-24 08:05:00,7.0,-18.6,28.47,NNW,342,0.0,0.0,29,0.00,CLR,,0.00,WeatherDisplay:10.37,2013-01-24 13:05:00,
2013-01-24 08:10:00,7.0,-18.7,28.50,NNW,342,0.0,0.0,29,0.00,CLR,,0.00,WeatherDisplay:10.37,2013-01-24 13:10:00,
2013-01-24 08:15:00,7.0,-18.7,28.50,NNW,342,0.0,0.0,29,0.00,CLR,,0.00,WeatherDisplay:10.37,2013-01-24 13:15:00,
2013-01-24 08:20:00,7.5,-18.2,28.50,NNW,342,2.0,3.0,29,0.00,CLR,,0.00,WeatherDisplay:10.37,2013-01-24 13:20:00,
2013-01-24 08:25:00,7.7,-18.0,28.50,NNW,342,0.0,3.0,29,0.00,CLR,,0.00,WeatherDisplay:10.37,2013-01-24 13:25:00,
2013-01-24 08:30:00,8.0,-17.7,28.50,NNW,342,0.0,3.0,29,0.00,CLR,,0.00,WeatherDisplay:10.37,2013-01-24 13:30:00,
2013-01-24 08:35:00,8.6,-17.2,28.50,NNW,342,2.0,3.0,29,0.00,CLR,,0.00,WeatherDisplay:10.37,2013-01-24 13:35:00,
2013-01-24 08:40:00,9.5,-16.4,28.47,NNW,342,2.0,4.0,29,0.00,CLR,,0.00,WeatherDisplay:10.37,2013-01-24 13:40:00,
2013-01-24 08:45:00,10.1,-15.9,28.47,NNW,342,3.0,4.0,29,0.00,CLR,,0.00,WeatherDisplay:10.37,2013-01-24 13:45:00,
2013-01-24 08:50:00,10.6,-15.5,28.47,NNW,342,3.0,4.0,29,0.00,CLR,,0.00,WeatherDisplay:10.37,2013-01-24 13:50:00,
2013-01-24 08:55:00,11.1,-15.0,28.50,NNW,342,3.0,5.0,29,0.00,CLR,,0.00,WeatherDisplay:10.37,2013-01-24 13:55:00,
2013-01-24 09:00:00,11.4,-14.8,28.50,NNW,342,3.0,6.0,29,0.00,CLR,,0.00,WeatherDisplay:10.37,2013-01-24 14:00:00,
2013-01-24 09:05:00,11.7,-14.5,28.50,NNW,341,3.0,5.0,29,0.00,CLR,,0.00,WeatherDisplay:10.37,2013-01-24 14:05:00,
2013-01-24 09:10:00,12.0,-14.2,28.53,NNW,342,2.0,5.0,29,0.00,CLR,,0.00,WeatherDisplay:10.37,2013-01-24 14:10:00,
2013-01-24 09:15:00,12.3,-14.0,28.53,NNW,342,2.0,6.0,29,0.00,CLR,,0.00,WeatherDisplay:10.37,2013-01-24 14:15:00,
2013-01-24 09:20:00,12.7,-13.6,28.53,NNW,345,2.0,5.0,29,0.00,CLR,,0.00,WeatherDisplay:10.37,2013-01-24 14:20:00,
2013-01-24 09:25:00,12.9,-13.4,28.53,North,350,0.0,4.0,29,0.00,CLR,,0.00,WeatherDisplay:10.37,2013-01-24 14:25:00,
2013-01-24 09:30:00,13.3,-13.1,28.53,North,354,0.0,5.0,29,0.00,CLR,,0.00,WeatherDisplay:10.37,2013-01-24 14:30:00,
2013-01-24 09:40:00,14.9,-15.5,28.53,NNW,348,0.0,4.0,24,0.00,CLR,,0.00,WeatherDisplay:10.37,2013-01-24 14:40:00,
2013-01-24 09:45:00,15.3,-15.2,28.53,North,356,3.0,5.0,24,0.00,CLR,,0.00,WeatherDisplay:10.37,2013-01-24 14:45:00,
2013-01-24 09:50:00,15.3,-15.1,28.53,North,358,2.0,6.0,24,0.00,CLR,,0.00,WeatherDisplay:10.37,2013-01-24 14:50:00,
2013-01-24 09:55:00,15.5,-14.9,28.56,North,358,0.0,5.0,24,0.00,CLR,,0.00,WeatherDisplay:10.37,2013-01-24 14:55:00,
2013-01-24 10:00:00,15.6,-14.9,28.56,North,355,0.0,6.0,24,0.00,CLR,,0.00,WeatherDisplay:10.37,2013-01-24 15:00:00,
2013-01-24 10:05:00,15.7,-14.8,28.56,North,349,0.0,6.0,24,0.00,CLR,,0.00,WeatherDisplay:10.37,2013-01-24 15:05:00,
2013-01-24 10:10:00,15.7,-14.8,28.61,North,4,0.0,4.0,24,0.00,CLR,,0.00,WeatherDisplay:10.37,2013-01-24 15:10:00,
2013-01-24 10:15:00,16.0,-15.3,28.61,North,3,0.0,4.0,23,0.00,CLR,,0.00,WeatherDisplay:10.37,2013-01-24 15:15:00,
2013-01-24 10:20:00,16.0,-15.4,28.61,NNE,12,0.0,4.0,23,0.00,CLR,,0.00,WeatherDisplay:10.37,2013-01-24 15:20:00,
2013-01-24 10:25:00,16.1,-15.3,28.56,NE,44,2.0,4.0,23,0.00,CLR,,0.00,WeatherDisplay:10.37,2013-01-24 15:25:00,
2013-01-24 10:30:00,15.6,-14.8,28.56,NE,45,0.0,5.0,24,0.00,CLR,,0.00,WeatherDisplay:10.37,2013-01-24 15:30:00,
2013-01-24 10:35:00,16.4,-15.0,28.56,NNE,26,0.0,2.0,23,0.00,CLR,,0.00,WeatherDisplay:10.37,2013-01-24 15:35:00,
2013-01-24 10:40:00,16.4,-15.0,28.56,NNE,30,0.0,5.0,23,0.00,CLR,,0.00,WeatherDisplay:10.37,2013-01-24 15:40:00,
2013-01-24 10:45:00,16.6,-14.8,28.56,NE,38,0.0,6.0,23,0.00,CLR,,0.00,WeatherDisplay:10.37,2013-01-24 15:45:00,
2013-01-24 10:50:00,17.4,-14.2,28.56,North,6,0.0,4.0,23,0.00,CLR,,0.00,WeatherDisplay:10.37,2013-01-24 15:50:00,
2013-01-24 10:55:00,17.3,-14.2,28.58,NNE,17,0.0,6.0,23,0.00,CLR,,0.00,WeatherDisplay:10.37,2013-01-24 15:55:00,
2013-01-24 11:00:00,18.1,-13.6,28.58,ENE,60,3.0,5.0,23,0.00,CLR,,0.00,WeatherDisplay:10.37,2013-01-24 16:00:00,
2013-01-24 11:05:00,18.1,-13.5,28.58,NE,46,0.0,4.0,23,0.00,CLR,,0.00,WeatherDisplay:10.37,2013-01-24 16:05:00,
2013-01-24 11:10:00,18.6,-13.1,28.58,NE,39,0.0,4.0,23,0.00,CLR,,0.00,WeatherDisplay:10.37,2013-01-24 16:10:00,
2013-01-24 11:15:00,18.0,-13.6,28.58,NE,52,2.0,6.0,23,0.00,CLR,,0.00,WeatherDisplay:10.37,2013-01-24 16:15:00,
2013-01-24 11:20:00,18.3,-13.4,28.58,ENE,60,0.0,5.0,23,0.00,CLR,,0.00,WeatherDisplay:10.37,2013-01-24 16:20:00,
2013-01-24 11:25:00,18.7,-13.1,28.58,ENE,64,0.0,6.0,23,0.00,CLR,,0.00,WeatherDisplay:10.37,2013-01-24 16:25:00,
2013-01-24 11:30:00,19.1,-12.7,28.58,ENE,62,2.0,6.0,23,0.00,CLR,,0.00,WeatherDisplay:10.37,2013-01-24 16:30:00,
2013-01-24 11:35:00,19.5,-12.4,28.58,ENE,60,0.0,3.0,23,0.00,CLR,,0.00,WeatherDisplay:10.37,2013-01-24 16:35:00,
2013-01-24 11:40:00,20.5,-12.4,28.58,ENE,65,3.0,6.0,22,0.00,CLR,,0.00,WeatherDisplay:10.37,2013-01-24 16:40:00,
2013-01-24 11:45:00,20.5,-12.4,28.58,ENE,68,3.0,6.0,22,0.00,CLR,,0.00,WeatherDisplay:10.37,2013-01-24 16:45:00,
2013-01-24 11:50:00,20.5,-12.4,28.58,ENE,65,5.0,6.0,22,0.00,CLR,,0.00,WeatherDisplay:10.37,2013-01-24 16:50:00,
2013-01-24 11:55:00,20.5,-12.4,28.58,ENE,61,6.0,8.0,22,0.00,CLR,,0.00,WeatherDisplay:10.37,2013-01-24 16:55:00,
2013-01-24 12:00:00,21.0,-12.0,28.58,ENE,64,5.0,8.0,22,0.00,CLR,,0.00,WeatherDisplay:10.37,2013-01-24 17:00:00,
2013-01-24 12:05:00,20.9,-12.1,28.58,ENE,66,5.0,6.0,22,0.00,CLR,,0.00,WeatherDisplay:10.37,2013-01-24 17:05:00,
2013-01-24 12:10:00,21.9,-11.2,28.58,ENE,67,3.0,6.0,22,0.00,CLR,,0.00,WeatherDisplay:10.37,2013-01-24 17:10:00,
2013-01-24 12:15:00,22.4,-10.8,28.58,ENE,67,6.0,7.0,22,0.00,CLR,,0.00,WeatherDisplay:10.37,2013-01-24 17:15:00,
2013-01-24 12:20:00,22.3,-10.8,28.58,ENE,71,6.0,9.0,22,0.00,CLR,,0.00,WeatherDisplay:10.37,2013-01-24 17:20:00,
2013-01-24 12:25:00,22.8,-10.4,28.58,ENE,72,6.0,7.0,22,0.00,CLR,,0.00,WeatherDisplay:10.37,2013-01-24 17:25:00,
2013-01-24 12:30:00,22.4,-10.8,28.58,ENE,74,5.0,6.0,22,0.00,CLR,,0.00,WeatherDisplay:10.37,2013-01-24 17:30:00,
2013-01-24 12:35:00,22.4,-10.8,28.58,ENE,76,5.0,6.0,22,0.00,CLR,,0.00,WeatherDisplay:10.37,2013-01-24 17:35:00,
2013-01-24 12:40:00,22.3,-10.8,28.56,ENE,76,6.0,8.0,22,0.00,CLR,,0.00,WeatherDisplay:10.37,2013-01-24 17:40:00,
2013-01-24 12:45:00,22.4,-10.8,28.56,ENE,69,6.0,8.0,22,0.00,CLR,,0.00,WeatherDisplay:10.37,2013-01-24 17:45:00,
2013-01-24 12:50:00,22.5,-10.7,28.56,ENE,67,6.0,8.0,22,0.00,CLR,,0.00,WeatherDisplay:10.37,2013-01-24 17:50:00,
2013-01-24 12:55:00,22.8,-10.4,28.56,ENE,71,3.0,6.0,22,0.00,CLR,,0.00,WeatherDisplay:10.37,2013-01-24 17:55:00,
2013-01-24 13:00:00,23.0,-10.3,28.56,East,79,5.0,8.0,22,0.00,CLR,,0.00,WeatherDisplay:10.37,2013-01-24 18:00:00,
2013-01-24 13:05:00,22.7,-10.5,28.56,ENE,77,3.0,6.0,22,0.00,CLR,,0.00,WeatherDisplay:10.37,2013-01-24 18:05:00,
2013-01-24 13:10:00,22.0,-11.1,28.56,ENE,66,3.0,7.0,22,0.00,CLR,,0.00,WeatherDisplay:10.37,2013-01-24 18:10:00,
2013-01-24 13:15:00,22.6,-10.6,28.56,ENE,71,6.0,6.0,22,0.00,CLR,,0.00,WeatherDisplay:10.37,2013-01-24 18:15:00,
2013-01-24 13:20:00,22.8,-10.4,28.56,East,89,5.0,6.0,22,0.00,CLR,,0.00,WeatherDisplay:10.37,2013-01-24 18:20:00,
2013-01-24 13:25:00,23.0,-10.3,28.56,East,99,3.0,6.0,22,0.00,CLR,,0.00,WeatherDisplay:10.37,2013-01-24 18:25:00,
2013-01-24 13:35:00,22.9,-10.4,28.56,East,85,3.0,8.0,22,0.00,CLR,,0.00,WeatherDisplay:10.37,2013-01-24 18:35:00,
2013-01-24 13:40:00,22.6,-10.6,28.56,ENE,77,6.0,8.0,22,0.00,CLR,,0.00,WeatherDisplay:10.37,2013-01-24 18:40:00,
2013-01-24 13:45:00,22.8,-10.5,28.56,East,88,5.0,7.0,22,0.00,CLR,,0.00,WeatherDisplay:10.37,2013-01-24 18:45:00,
2013-01-24 13:50:00,23.5,-9.9,28.56,East,91,3.0,6.0,22,0.00,CLR,,0.00,WeatherDisplay:10.37,2013-01-24 18:50:00,
2013-01-24 13:55:00,23.2,-10.1,28.56,ENE,73,6.0,8.0,22,0.00,CLR,,0.00,WeatherDisplay:10.37,2013-01-24 18:55:00,
2013-01-24 14:00:00,23.3,-10.0,28.56,ENE,69,6.0,7.0,22,0.00,CLR,,0.00,WeatherDisplay:10.37,2013-01-24 19:00:00,
2013-01-24 14:05:00,23.0,-10.3,28.56,ENE,70,5.0,8.0,22,0.00,CLR,,0.00,WeatherDisplay:10.37,2013-01-24 19:05:00,
2013-01-24 14:10:00,23.1,-10.2,28.53,ENE,73,6.0,8.0,22,0.00,CLR,,0.00,WeatherDisplay:10.37,2013-01-24 19:10:00,
2013-01-24 14:15:00,23.4,-9.9,28.53,ENE,66,6.0,8.0,22,0.00,CLR,,0.00,WeatherDisplay:10.37,2013-01-24 19:15:00,
2013-01-24 14:20:00,23.2,-10.1,28.53,ENE,75,6.0,9.0,22,0.00,CLR,,0.00,WeatherDisplay:10.37,2013-01-24 19:20:00,
2013-01-24 14:25:00,23.0,-10.3,28.53,East,83,5.0,7.0,22,0.00,CLR,,0.00,WeatherDisplay:10.37,2013-01-24 19:25:00,
2013-01-24 14:30:00,22.7,-10.5,28.53,ENE,73,7.0,9.0,22,0.00,CLR,,0.00,WeatherDisplay:10.37,2013-01-24 19:30:00,
2013-01-24 14:35:00,22.8,-10.4,28.53,ENE,72,5.0,8.0,22,0.00,CLR,,0.00,WeatherDisplay:10.37,2013-01-24 19:35:00,
2013-01-24 14:40:00,22.8,-10.4,28.56,East,81,5.0,8.0,22,0.00,CLR,,0.00,WeatherDisplay:10.37,2013-01-24 19:40:00,
2013-01-24 14:45:00,22.9,-10.4,28.56,East,83,5.0,6.0,22,0.00,CLR,,0.00,WeatherDisplay:10.37,2013-01-24 19:45:00,
2013-01-24 14:50:00,23.2,-10.1,28.56,East,81,3.0,7.0,22,0.00,CLR,,0.00,WeatherDisplay:10.37,2013-01-24 19:50:00,
2013-01-24 14:55:00,23.2,-10.1,28.53,East,85,5.0,8.0,22,0.00,CLR,,0.00,WeatherDisplay:10.37,2013-01-24 19:55:00,
2013-01-24 15:00:00,23.2,-10.1,28.53,East,84,6.0,7.0,22,0.00,CLR,,0.00,WeatherDisplay:10.37,2013-01-24 20:00:00,
2013-01-24 15:05:00,23.4,-9.9,28.53,ENE,76,3.0,6.0,22,0.00,CLR,,0.00,WeatherDisplay:10.37,2013-01-24 20:05:00,
2013-01-24 15:10:00,23.5,-9.8,28.53,ENE,72,6.0,8.0,22,0.00,CLR,,0.00,WeatherDisplay:10.37,2013-01-24 20:10:00,
2013-01-24 15:20:00,23.8,-9.6,28.53,ENE,77,3.0,8.0,22,0.00,CLR,,0.00,WeatherDisplay:10.37,2013-01-24 20:20:00,
2013-01-24 15:25:00,24.0,-9.4,28.53,East,90,3.0,6.0,22,0.00,CLR,,0.00,WeatherDisplay:10.37,2013-01-24 20:25:00,
2013-01-24 15:30:00,23.8,-9.6,28.53,East,89,5.0,6.0,22,0.00,CLR,,0.00,WeatherDisplay:10.37,2013-01-24 20:30:00,
2013-01-24 15:35:00,23.7,-9.7,28.53,East,85,3.0,7.0,22,0.00,CLR,,0.00,WeatherDisplay:10.37,2013-01-24 20:35:00,
2013-01-24 15:40:00,23.2,-10.1,28.53,ENE,77,5.0,6.0,22,0.00,CLR,,0.00,WeatherDisplay:10.37,2013-01-24 20:40:00,
2013-01-24 15:45:00,23.1,-10.2,28.53,East,79,3.0,6.0,22,0.00,CLR,,0.00,WeatherDisplay:10.37,2013-01-24 20:45:00,
2013-01-24 15:50:00,22.8,-10.4,28.53,ENE,76,5.0,6.0,22,0.00,CLR,,0.00,WeatherDisplay:10.37,2013-01-24 20:50:00,
2013-01-24 15:55:00,22.8,-10.4,28.53,ENE,67,3.0,6.0,22,0.00,CLR,,0.00,WeatherDisplay:10.37,2013-01-24 20:55:00,
2013-01-24 16:00:00,23.2,-10.1,28.53,East,79,2.0,5.0,22,0.00,CLR,,0.00,WeatherDisplay:10.37,2013-01-24 21:00:00,
2013-01-24 16:05:00,22.8,-10.4,28.53,East,85,5.0,6.0,22,0.00,CLR,,0.00,WeatherDisplay:10.37,2013-01-24 21:05:00,
2013-01-24 16:10:00,22.5,-10.7,28.53,East,82,5.0,6.0,22,0.00,CLR,,0.00,WeatherDisplay:10.37,2013-01-24 21:10:00,
2013-01-24 16:15:00,22.4,-10.8,28.53,ENE,78,3.0,6.0,22,0.00,CLR,,0.00,WeatherDisplay:10.37,2013-01-24 21:15:00,
2013-01-24 16:20:00,22.1,-11.0,28.53,ENE,76,5.0,8.0,22,0.00,CLR,,0.00,WeatherDisplay:10.37,2013-01-24 21:20:00,
2013-01-24 16:25:00,21.9,-11.2,28.53,ENE,76,3.0,6.0,22,0.00,CLR,,0.00,WeatherDisplay:10.37,2013-01-24 21:25:00,
2013-01-24 16:30:00,21.7,-11.3,28.53,East,79,2.0,4.0,22,0.00,CLR,,0.00,WeatherDisplay:10.37,2013-01-24 21:30:00,
2013-01-24 16:35:00,21.7,-11.3,28.53,East,81,3.0,6.0,22,0.00,CLR,,0.00,WeatherDisplay:10.37,2013-01-24 21:35:00,
2013-01-24 16:40:00,21.4,-11.7,28.53,East,91,3.0,6.0,22,0.00,CLR,,0.00,WeatherDisplay:10.37,2013-01-24 21:40:00,
2013-01-24 16:45:00,21.4,-11.7,28.53,East,80,3.0,6.0,22,0.00,CLR,,0.00,WeatherDisplay:10.37,2013-01-24 21:45:00,
2013-01-24 16:50:00,21.4,-11.7,28.53,ENE,70,3.0,4.0,22,0.00,CLR,,0.00,WeatherDisplay:10.37,2013-01-24 21:50:00,
2013-01-24 16:55:00,21.1,-11.9,28.53,ENE,77,3.0,4.0,22,0.00,CLR,,0.00,WeatherDisplay:10.37,2013-01-24 21:55:00,
2013-01-24 17:00:00,21.0,-12.0,28.53,East,80,2.0,4.0,22,0.00,CLR,,0.00,WeatherDisplay:10.37,2013-01-24 22:00:00,
2013-01-24 17:05:00,21.0,-12.0,28.53,East,86,3.0,4.0,22,0.00,CLR,,0.00,WeatherDisplay:10.37,2013-01-24 22:05:00,
2013-01-24 17:10:00,20.8,-12.1,28.50,East,82,5.0,6.0,22,0.00,CLR,,0.00,WeatherDisplay:10.37,2013-01-24 22:10:00,
2013-01-24 17:15:00,20.7,-12.3,28.50,ENE,74,3.0,6.0,22,0.00,CLR,,0.00,WeatherDisplay:10.37,2013-01-24 22:15:00,
2013-01-24 17:25:00,20.3,-12.6,28.50,ENE,70,2.0,6.0,22,0.00,CLR,,0.00,WeatherDisplay:10.37,2013-01-24 22:25:00,
2013-01-24 17:30:00,20.3,-12.6,28.50,ENE,74,3.0,5.0,22,0.00,CLR,,0.00,WeatherDisplay:10.37,2013-01-24 22:30:00,
2013-01-24 17:35:00,20.3,-12.6,28.50,ENE,75,3.0,6.0,22,0.00,CLR,,0.00,WeatherDisplay:10.37,2013-01-24 22:35:00,
2013-01-24 17:40:00,20.1,-12.7,28.50,East,82,2.0,4.0,22,0.00,CLR,,0.00,WeatherDisplay:10.37,2013-01-24 22:40:00,
2013-01-24 17:45:00,20.1,-12.7,28.50,East,87,0.0,3.0,22,0.00,CLR,,0.00,WeatherDisplay:10.37,2013-01-24 22:45:00,
2013-01-24 17:50:00,20.1,-12.7,28.50,ENE,78,2.0,4.0,22,0.00,CLR,,0.00,WeatherDisplay:10.37,2013-01-24 22:50:00,
2013-01-24 17:55:00,19.9,-12.9,28.50,ENE,76,3.0,6.0,22,0.00,CLR,,0.00,WeatherDisplay:10.37,2013-01-24 22:55:00,
2013-01-24 18:00:00,19.9,-12.9,28.50,ENE,72,2.0,4.0,22,0.00,CLR,,0.00,WeatherDisplay:10.37,2013-01-24 23:00:00,
2013-01-24 18:05:00,19.8,-13.0,28.50,ENE,76,3.0,4.0,22,0.00,CLR,,0.00,WeatherDisplay:10.37,2013-01-24 23:05:00,
2013-01-24 18:10:00,19.8,-13.0,28.50,ENE,73,3.0,5.0,22,0.00,CLR,,0.00,WeatherDisplay:10.37,2013-01-24 23:10:00,
2013-01-24 18:15:00,19.6,-13.2,28.50,ENE,68,3.0,5.0,22,0.00,CLR,,0.00,WeatherDisplay:10.37,2013-01-24 23:15:00,
2013-01-24 18:20:00,19.6,-13.2,28.50,ENE,64,2.0,3.0,22,0.00,CLR,,0.00,WeatherDisplay:10.37,2013-01-24 23:20:00,
2013-01-24 18:25:00,19.4,-12.4,28.47,ENE,73,1.0,4.0,23,0.00,CLR,,0.00,WeatherDisplay:10.37,2013-01-24 23:25:00,
2013-01-24 18:30:00,19.4,-12.4,28.47,East,83,2.0,3.0,23,0.00,CLR,,0.00,WeatherDisplay:10.37,2013-01-24 23:30:00,
2013-01-24 18:35:00,19.2,-12.6,28.47,East,85,0.0,3.0,23,0.00,CLR,,0.00,WeatherDisplay:10.37,2013-01-24 23:35:00,
2013-01-24 18:40:00,19.2,-12.6,28.47,East,85,2.0,3.0,23,0.00,CLR,,0.00,WeatherDisplay:10.37,2013-01-24 23:40:00,
2013-01-24 18:45:00,19.2,-12.6,28.47,East,84,2.0,4.0,23,0.00,CLR,,0.00,WeatherDisplay:10.37,2013-01-24 23:45:00,
2013-01-24 18:50:00,19.0,-12.8,28.47,East,82,3.0,4.0,23,0.00,CLR,,0.00,WeatherDisplay:10.37,2013-01-24 23:50:00,
2013-01-24 18:55:00,19.0,-12.8,28.47,East,81,2.0,4.0,23,0.00,CLR,,0.00,WeatherDisplay:10.37,2013-01-24 23:55:00,
2013-01-24 19:00:00,18.9,-12.9,28.47,East,81,0.0,4.0,23,0.00,CLR,,0.00,WeatherDisplay:10.37,2013-01-25 00:00:00,
2013-01-24 19:05:00,19.0,-12.8,28.47,East,82,2.0,4.0,23,0.00,CLR,,0.00,WeatherDisplay:10.37,2013-01-25 00:05:00,
2013-01-24 19:10:00,18.9,-12.9,28.50,East,82,2.0,4.0,23,0.00,CLR,,0.00,WeatherDisplay:10.37,2013-01-25 00:10:00,
2013-01-24 19:15:00,18.7,-13.0,28.50,East,82,0.0,4.0,23,0.00,CLR,,0.00,WeatherDisplay:10.37,2013-01-25 00:15:00,
2013-01-24 19:20:00,18.7,-13.1,28.50,East,82,0.0,3.0,23,0.00,CLR,,0.00,WeatherDisplay:10.37,2013-01-25 00:20:00,
2013-01-24 19:25:00,18.7,-13.1,28.50,East,82,0.0,2.0,23,0.00,CLR,,0.00,WeatherDisplay:10.37,2013-01-25 00:25:00,
2013-01-24 19:30:00,18.5,-13.2,28.50,East,82,0.0,0.0,23,0.00,CLR,,0.00,WeatherDisplay:10.37,2013-01-25 00:30:00,
2013-01-24 19:35:00,18.5,-13.2,28.50,East,82,0.0,3.0,23,0.00,CLR,,0.00,WeatherDisplay:10.37,2013-01-25 00:35:00,
2013-01-24 19:45:00,18.7,-13.1,28.50,East,82,2.0,3.0,23,0.00,CLR,,0.00,WeatherDisplay:10.37,2013-01-25 00:45:00,
2013-01-24 19:50:00,18.7,-13.1,28.50,East,81,3.0,4.0,23,0.00,CLR,,0.00,WeatherDisplay:10.37,2013-01-25 00:50:00,
2013-01-24 19:55:00,18.7,-13.1,28.47,East,81,2.0,4.0,23,0.00,CLR,,0.00,WeatherDisplay:10.37,2013-01-25 00:55:00,
2013-01-24 20:00:00,18.7,-13.1,28.47,East,85,2.0,3.0,23,0.00,CLR,,0.00,WeatherDisplay:10.37,2013-01-25 01:00:00,
2013-01-24 20:05:00,18.7,-13.1,28.47,East,84,2.0,4.0,23,0.00,CLR,,0.00,WeatherDisplay:10.37,2013-01-25 01:05:00,
2013-01-24 20:10:00,18.7,-13.1,28.47,East,79,2.0,5.0,23,0.00,CLR,,0.00,WeatherDisplay:10.37,2013-01-25 01:10:00,
2013-01-24 20:15:00,18.7,-13.1,28.47,East,79,3.0,4.0,23,0.00,CLR,,0.00,WeatherDisplay:10.37,2013-01-25 01:15:00,
2013-01-24 20:20:00,18.7,-13.1,28.47,East,80,3.0,4.0,23,0.00,CLR,,0.00,WeatherDisplay:10.37,2013-01-25 01:20:00,
2013-01-24 20:25:00,18.7,-13.1,28.44,East,79,2.0,4.0,23,0.00,CLR,,0.00,WeatherDisplay:10.37,2013-01-25 01:25:00,
2013-01-24 20:30:00,18.7,-13.1,28.44,ENE,76,2.0,6.0,23,0.00,CLR,,0.00,WeatherDisplay:10.37,2013-01-25 01:30:00,
2013-01-24 20:35:00,18.7,-13.1,28.44,East,80,3.0,5.0,23,0.00,CLR,,0.00,WeatherDisplay:10.37,2013-01-25 01:35:00,
2013-01-24 20:40:00,18.7,-13.1,28.44,East,83,3.0,6.0,23,0.00,CLR,,0.00,WeatherDisplay:10.37,2013-01-25 01:40:00,
2013-01-24 20:45:00,18.7,-13.1,28.44,East,84,3.0,6.0,23,0.00,CLR,,0.00,WeatherDisplay:10.37,2013-01-25 01:45:00,
2013-01-24 20:50:00,18.7,-13.1,28.44,East,81,5.0,6.0,23,0.00,CLR,,0.00,WeatherDisplay:10.37,2013-01-25 01:50:00,
2013-01-24 20:55:00,18.7,-13.1,28.44,East,79,3.0,6.0,23,0.00,CLR,,0.00,WeatherDisplay:10.37,2013-01-25 01:55:00,
2013-01-24 21:00:00,18.7,-13.1,28.44,East,86,3.0,6.0,23,0.00,CLR,,0.00,WeatherDisplay:10.37,2013-01-25 02:00:00,
2013-01-24 21:05:00,18.7,-13.1,28.44,East,93,3.0,6.0,23,0.00,CLR,,0.00,WeatherDisplay:10.37,2013-01-25 02:05:00,
2013-01-24 21:10:00,18.9,-12.9,28.44,East,85,3.0,6.0,23,0.00,CLR,,0.00,WeatherDisplay:10.37,2013-01-25 02:10:00,
2013-01-24 21:15:00,19.0,-12.8,28.44,East,79,3.0,6.0,23,0.00,CLR,,0.00,WeatherDisplay:10.37,2013-01-25 02:15:00,
2013-01-24 21:20:00,19.0,-12.8,28.44,East,81,3.0,6.0,23,0.00,CLR,,0.00,WeatherDisplay:10.37,2013-01-25 02:20:00,
2013-01-24 21:25:00,19.0,-12.8,28.44,East,87,5.0,6.0,23,0.00,CLR,,0.00,WeatherDisplay:10.37,2013-01-25 02:25:00,
2013-01-24 21:30:00,19.0,-12.8,28.44,East,86,5.0,6.0,23,0.00,CLR,,0.00,WeatherDisplay:10.37,2013-01-25 02:30:00,
2013-01-24 21:40:00,18.9,-12.9,28.44,East,85,5.0,6.0,23,0.00,CLR,,0.00,WeatherDisplay:10.37,2013-01-25 02:40:00,
2013-01-24 21:45:00,19.0,-12.8,28.44,East,88,5.0,6.0,23,0.00,CLR,,0.00,WeatherDisplay:10.37,2013-01-25 02:45:00,
2013-01-24 21:55:00,18.9,-12.9,28.41,ESE,121,5.0,8.0,23,0.00,CLR,,0.00,WeatherDisplay:10.37,2013-01-25 02:55:00,
2013-01-24 22:00:00,19.0,-12.8,28.41,ESE,102,5.0,6.0,23,0.00,CLR,,0.00,WeatherDisplay:10.37,2013-01-25 03:00:00,
2013-01-24 22:05:00,18.9,-12.9,28.41,East,96,3.0,6.0,23,0.00,CLR,,0.00,WeatherDisplay:10.37,2013-01-25 03:05:00,
2013-01-24 22:10:00,18.7,-13.1,28.41,ESE,107,5.0,6.0,23,0.00,CLR,,0.00,WeatherDisplay:10.37,2013-01-25 03:10:00,
2013-01-24 22:15:00,18.7,-13.1,28.41,East,101,3.0,6.0,23,0.00,CLR,,0.00,WeatherDisplay:10.37,2013-01-25 03:15:00,
2013-01-24 22:20:00,18.5,-13.2,28.41,East,92,3.0,6.0,23,0.00,CLR,,0.00,WeatherDisplay:10.37,2013-01-25 03:20:00,
2013-01-24 22:25:00,18.5,-13.2,28.44,ESE,104,2.0,6.0,23,0.00,CLR,,0.00,WeatherDisplay:10.37,2013-01-25 03:25:00,
2013-01-24 22:30:00,18.5,-13.2,28.44,ESE,111,0.0,6.0,23,0.00,CLR,,0.00,WeatherDisplay:10.37,2013-01-25 03:30:00,
2013-01-24 22:35:00,18.5,-13.2,28.44,ESE,112,3.0,8.0,23,0.00,CLR,,0.00,WeatherDisplay:10.37,2013-01-25 03:35:00,
2013-01-24 22:40:00,18.5,-13.2,28.41,ESE,113,3.0,8.0,23,0.00,CLR,,0.00,WeatherDisplay:10.37,2013-01-25 03:40:00,
2013-01-24 22:45:00,18.7,-13.1,28.41,ESE,113,3.0,6.0,23,0.00,CLR,,0.00,WeatherDisplay:10.37,2013-01-25 03:45:00,
2013-01-24 22:50:00,18.7,-13.1,28.41,ESE,112,2.0,5.0,23,0.00,CLR,,0.00,WeatherDisplay:10.37,2013-01-25 03:50:00,
2013-01-24 23:00:00,18.7,-13.1,28.41,SE,124,0.0,4.0,23,0.00,CLR,,0.00,WeatherDisplay:10.37,2013-01-25 04:00:00,
2013-01-24 23:05:00,18.7,-13.1,28.41,SE,128,3.0,6.0,23,0.00,CLR,,0.00,WeatherDisplay:10.37,2013-01-25 04:05:00,
2013-01-24 23:10:00,18.8,-12.9,28.41,ESE,122,3.0,6.0,23,0.00,CLR,,0.00,WeatherDisplay:10.37,2013-01-25 04:10:00,
2013-01-24 23:15:00,18.9,-12.9,28.41,ESE,118,2.0,8.0,23,0.00,CLR,,0.00,WeatherDisplay:10.37,2013-01-25 04:15:00,
2013-01-24 23:20:00,19.0,-12.8,28.41,ESE,119,3.0,6.0,23,0.00,CLR,,0.00,WeatherDisplay:10.37,2013-01-25 04:20:00,
2013-01-24 23:25:00,19.0,-12.8,28.41,ESE,123,3.0,6.0,23,0.00,CLR,,0.00,WeatherDisplay:10.37,2013-01-25 04:25:00,
2013-01-24 23:30:00,19.0,-12.8,28.41,ESE,109,5.0,8.0,23,0.00,CLR,,0.00,WeatherDisplay:10.37,2013-01-25 04:30:00,
2013-01-24 23:35:00,19.0,-12.8,28.41,ESE,112,3.0,8.0,23,0.00,CLR,,0.00,WeatherDisplay:10.37,2013-01-25 04:35:00,
2013-01-24 23:40:00,19.0,-12.8,28.41,ESE,123,5.0,6.0,23,0.00,CLR,,0.00,WeatherDisplay:10.37,2013-01-25 04:40:00,
2013-01-24 23:45:00,19.2,-12.6,28.41,ESE,103,6.0,9.0,23,0.00,CLR,,0.00,WeatherDisplay:10.37,2013-01-25 04:45:00,
2013-01-24 23:50:00,19.2,-12.6,28.41,East,89,5.0,7.0,23,0.00,CLR,,0.00,WeatherDisplay:10.37,2013-01-25 04:50:00,
2013-01-24 23:55:00,19.2,-12.6,28.41,East,92,6.0,10.0,23,0.00,CLR,,0.00,WeatherDisplay:10.37,2013-01-25 04:55:00,